CAPE
0 0 0 0 0 0 0 0 0 0 0 0 0 0 0 0 0 0 18 22 1 0 379 1052 995 535 246 399 872 972 1010 1017 973 893 701 504 474 484 361 102 65 0 0 0 0 0 0 0 0
0 0 0 0 0 0 0 0 0 0 0 0 0 0 0 0 0 0 0 7 0 12 270 872 1085 827 344 141 160 425 577 640 640 443 178 142 204 98 8 0 0 0 0 0 0 0 0 0 0
0 0 0 0 0 0 0 0 0 0 0 0 0 0 0 0 0 0 12 0 0 41 342 823 1240 1136 500 197 95 82 102 82 75 51 31 34 3 0 0 0 0 0 0 0 0 0 0 0 0
0 0 0 0 0 0 0 0 0 0 0 0 0 0 0 0 0 48 40 0 0 68 246 749 1194 1196 795 333 134 87 66 24 4 0 0 0 0 0 0 0 0 0 0 0 0 0 0 0 0
0 0 0 0 0 0 0 0 0 0 0 0 0 0 0 0 51 62 24 0 0 46 190 446 958 1253 1008 549 254 129 123 45 7 0 0 0 0 0 0 0 0 0 0 0 0 0 0 0 0
0 0 0 0 0 0 0 0 0 0 0 0 0 0 0 0 54 51 9 0 0 56 180 411 886 1293 1214 849 464 271 182 88 23 3 0 0 0 0 0 0 0 0 0 0 0 0 0 0 0
0 0 0 0 0 0 0 0 0 0 0 0 0 0 0 0 60 16 0 0 1 91 143 453 617 1193 1299 1007 642 457 359 187 76 38 0 0 0 0 0 0 0 0 0 0 0 0 0 0 0
0 0 0 0 0 0 0 0 0 0 0 0 0 0 0 0 43 47 0 0 0 66 66 261 552 876 1080 992 746 651 602 491 208 150 55 21 29 0 0 0 0 0 0 0 0 0 0 0 0
0 0 0 0 0 0 0 0 0 0 0 0 0 0 0 0 52 74 30 0 0 5 118 307 592 832 875 716 852 795 838 740 534 462 341 210 218 249 168 19 1 0 0 0 0 0 0 0 0
0 0 0 0 0 0 0 0 0 0 0 0 0 0 0 0 0 4 100 1 0 0 39 270 655 720 926 743 899 920 897 920 867 856 908 693 665 620 316 198 15 0 0 0 0 0 12 8 0
0 0 0 0 0 0 0 0 0 0 0 0 0 0 0 0 0 0 0 18 0 0 0 59 415 614 684 513 823 993 982 1050 1015 987 924 912 716 480 473 317 211 96 38 3 2 0 0 3 15
0 0 0 0 0 0 0 0 0 0 0 0 0 0 0 0 0 0 0 0 7 0 0 42 130 309 377 504 597 629 622 835 555 540 644 574 210 220 399 301 234 232 68 32 22 1 0 10 13
0 0 0 0 0 0 0 0 0 0 0 0 0 0 0 0 0 0 0 0 33 0 0 0 0 33 261 371 317 420 364 352 257 235 362 383 162 117 207 188 172 98 92 34 14 1 4 0 0
0 0 0 0 0 0 0 0 0 0 0 0 0 0 0 0 0 0 0 0 0 2 4 0 0 11 35 73 137 119 226 143 166 147 228 325 161 96 35 35 62 30 30 16 2 4 0 0 0
0 0 0 0 0 0 0 0 0 0 0 0 0 0 0 0 0 0 0 0 0 0 3 34 5 1 0 0 0 43 69 72 26 55 60 68 143 24 0 0 2 10 11 7 0 0 0 0 0
0 0 0 0 0 0 0 0 0 0 0 0 0 0 0 0 0 0 0 0 0 0 10 56 135 13 17 4 1 0 3 0 0 0 8 4 6 0 0 0 0 0 0 0 0 0 0 0 0
0 0 0 0 0 0 0 0 0 0 0 0 0 0 0 0 0 0 0 0 0 0 0 282 439 90 104 16 5 4 0 0 0 0 0 0 0 0 0 0 0 0 0 0 0 3 3 4 0
0 0 0 0 0 0 0 0 0 0 0 0 0 0 0 0 0 0 0 0 0 0 0 0 140 423 354 11 7 0 4 0 0 0 0 0 0 1 2 0 1 0 0 2 22 41 53 42 22
0 0 0 0 0 0 0 0 0 0 0 0 0 0 0 0 0 0 0 0 0 0 0 0 0 869 1218 758 221 34 0 0 0 0 0 0 3 54 39 20 7 0 22 167 230 175 182 140 54
0 0 0 0 0 0 0 0 0 0 0 0 0 0 0 0 0 0 0 0 0 0 0 0 0 0 258 1011 1038 670 394 108 52 40 72 307 297 177 106 98 79 52 149 347 382 302 331 294 154
0 0 0 0 0 0 0 0 0 0 0 0 0 0 0 0 0 0 0 0 0 0 0 0 0 0 0 75 716 874 787 626 395 213 316 439 361 306 279 378 366 372 481 632 554 447 446 663 306
0 0 0 0 0 0 0 0 0 0 0 0 0 0 0 0 0 0 0 0 0 0 0 0 0 0 0 0 6 331 586 843 823 684 521 798 735 613 659 604 689 733 657 842 715 610 572 559 738
0 0 0 0 0 0 0 0 0 0 0 0 0 0 0 0 0 0 0 0 0 0 0 0 0 0 0 0 0 0 176 604 916 988 838 1069 1112 1116 1052 1101 1034 1047 1058 983 698 623 526 563 619
0 0 0 0 0 0 0 0 0 0 0 0 0 0 0 0 0 0 0 0 0 0 0 0 0 0 0 0 0 0 0 9 237 488 584 593 653 1060 1293 1385 1342 1360 1160 913 789 769 707 631 536
0 0 0 0 0 0 0 0 0 0 0 0 0 0 0 0 0 0 0 0 0 0 0 0 0 0 0 0 0 0 0 0 3 53 219 368 679 923 1313 1446 1455 1304 1087 1153 836 705 717 715 693
0 0 0 0 0 0 0 0 0 0 0 0 0 0 0 0 0 0 0 0 0 0 0 0 0 0 0 0 0 0 0 0 30 99 107 157 286 664 1118 1201 1412 1213 1125 767 730 820 918 855 839
0 0 0 0 0 0 0 0 0 0 0 0 0 0 0 0 0 0 0 0 0 0 0 0 0 0 0 0 0 0 0 0 17 254 322 223 386 696 946 1033 1009 902 846 787 1029 1294 1315 1094 941
0 0 0 0 0 0 0 0 0 0 0 0 0 0 0 0 0 0 0 0 0 0 0 0 0 0 0 0 0 0 0 0 0 78 338 306 567 708 821 763 711 830 859 1416 1559 1633 1529 1236 962
0 0 0 0 0 0 0 0 0 0 0 0 0 0 0 0 0 0 0 0 0 0 0 0 0 0 0 0 0 0 0 0 0 0 45 376 685 760 821 697 723 762 1272 1810 1735 1389 1159 931 751
0 0 0 5 2 0 1 0 0 0 0 0 0 0 0 0 0 0 0 0 3 0 0 0 0 0 0 0 0 0 0 0 0 0 0 400 593 758 754 799 959 1258 1876 1911 1631 1154 863 631 592
CIN
-0 -0 -0 -0 -0 -0 -0 -0 -0 -0 -0 -0 -0 -0 -0 -0 -0 -0 -421 -547 -447 -0 -605 -449 -414 -472 -504 -413 -295 -245 -225 -195 -185 -189 -200 -209 -215 -204 -215 -276 -274 -0 -0 -0 -0 -0 -0 -0 -0
-0 -0 -0 -0 -0 -0 -0 -0 -0 -0 -0 -0 -0 -0 -0 -0 -0 -0 -0 -353 -0 -462 -642 -485 -401 -424 -508 -546 -523 -386 -320 -282 -264 -266 -300 -304 -295 -311 -203 -0 -0 -0 -0 -0 -0 -0 -0 -0 -0
-0 -0 -0 -0 -0 -0 -0 -0 -0 -0 -0 -0 -0 -0 -0 -0 -0 -0 -366 -0 -0 -700 -619 -503 -379 -350 -476 -559 -604 -577 -519 -486 -458 -450 -470 -445 -135 -0 -0 -0 -0 -0 -0 -0 -0 -0 -0 -0 -0
-0 -0 -0 -0 -0 -0 -0 -0 -0 -0 -0 -0 -0 -0 -0 -0 -0 -437 -557 -0 -0 -695 -631 -532 -407 -350 -410 -516 -601 -639 -628 -630 -368 -0 -0 -0 -0 -0 -0 -0 -0 -0 -0 -0 -0 -0 -0 -0 -0
-0 -0 -0 -0 -0 -0 -0 -0 -0 -0 -0 -0 -0 -0 -0 -0 -552 -674 -622 -0 -0 -704 -667 -591 -480 -377 -366 -458 -553 -599 -585 -627 -648 -0 -0 -0 -0 -0 -0 -0 -0 -0 -0 -0 -0 -0 -0 -0 -0
-0 -0 -0 -0 -0 -0 -0 -0 -0 -0 -0 -0 -0 -0 -0 -0 -608 -770 -796 -0 -0 -672 -648 -573 -484 -366 -324 -366 -458 -526 -554 -592 -600 -587 -0 -0 -0 -0 -0 -0 -0 -0 -0 -0 -0 -0 -0 -0 -0
-0 -0 -0 -0 -0 -0 -0 -0 -0 -0 -0 -0 -0 -0 -0 -0 -661 -827 -0 -0 -100 -655 -657 -571 -506 -379 -343 -353 -416 -475 -511 -554 -560 -554 -30 -0 -0 -0 -0 -0 -0 -0 -0 -0 -0 -0 -0 -0 -0
-0 -0 -0 -0 -0 -0 -0 -0 -0 -0 -0 -0 -0 -0 -0 -0 -623 -751 -0 -0 -0 -651 -616 -541 -495 -412 -358 -357 -403 -426 -455 -475 -521 -528 -532 -527 -513 -24 -0 -0 -0 -0 -0 -0 -0 -0 -0 -0 -0
-0 -0 -0 -0 -0 -0 -0 -0 -0 -0 -0 -0 -0 -0 -0 -0 -525 -556 -656 -0 -0 -624 -645 -543 -490 -447 -407 -393 -377 -404 -387 -403 -446 -430 -442 -450 -405 -406 -431 -502 -80 -0 -0 -0 -0 -0 -0 -0 -0
-0 -0 -0 -0 -0 -0 -0 -0 -0 -0 -0 -0 -0 -0 -0 -0 -26 -405 -422 -19 -0 -0 -707 -584 -514 -478 -413 -407 -353 -354 -355 -355 -355 -337 -314 -329 -333 -337 -388 -412 -567 -69 -0 -0 -0 -0 -514 -429 -0
-0 -0 -0 -0 -0 -0 -0 -0 -0 -0 -0 -0 -0 -0 -0 -0 -0 -0 -0 -396 -0 -0 -0 -693 -596 -532 -480 -467 -397 -337 -331 -334 -348 -337 -340 -327 -357 -410 -379 -396 -432 -486 -546 -421 -241 -0 -10 -237 -431
-0 -0 -0 -0 -0 -0 -0 -0 -0 -0 -0 -0 -0 -0 -0 -0 -0 -0 -0 -0 -433 -0 -0 -711 -656 -612 -555 -481 -463 -430 -418 -375 -452 -492 -459 -435 -555 -491 -395 -420 -429 -430 -477 -485 -547 -516 -68 -521 -499
-0 -0 -0 -0 -0 -0 -0 -0 -0 -0 -0 -0 -0 -0 -0 -0 -0 -0 -0 -0 -459 -0 -0 -0 -78 -634 -610 -588 -546 -521 -513 -513 -522 -534 -541 -521 -540 -520 -497 -476 -499 -535 -520 -556 -602 -306 -611 -0 -0
-0 -0 -0 -0 -0 -0 -0 -0 -0 -0 -0 -0 -0 -0 -0 -0 -0 -0 -0 -0 -0 -73 -267 -0 -0 -640 -627 -644 -613 -595 -564 -564 -558 -570 -579 -542 -537 -544 -560 -568 -586 -614 -620 -612 -674 -677 -0 -0 -0
-0 -0 -0 -0 -0 -0 -0 -0 -0 -0 -0 -0 -0 -0 -0 -0 -0 -0 -0 -0 -0 -0 -29 -406 -566 -223 -0 -0 -0 -630 -634 -627 -624 -604 -625 -645 -645 -624 -45 -12 -366 -637 -663 -670 -53 -0 -0 -0 -0
-0 -0 -0 -0 -0 -0 -0 -0 -0 -0 -0 -0 -0 -0 -0 -0 -0 -0 -0 -0 -0 -0 -315 -381 -347 -343 -441 -487 -238 -0 -506 -113 -0 -0 -641 -536 -580 -155 -0 -0 -0 -0 -0 -0 -239 -0 -0 -0 -0
-0 -0 -0 -0 -0 -0 -0 -0 -0 -0 -0 -0 -0 -0 -0 -0 -0 -0 -0 -0 -0 -0 -0 -285 -382 -310 -298 -439 -533 -681 -0 -0 -0 -0 -0 -0 -0 -0 -0 -0 -0 -0 -0 -0 -0 -550 -633 -554 -0
-0 -0 -0 -0 -0 -0 -0 -0 -0 -0 -0 -0 -0 -0 -0 -0 -0 -0 -0 -0 -0 -0 -0 -0 -298 -188 -242 -490 -450 -134 -498 -0 -0 -0 -0 -0 -0 -97 -754 -0 -114 -43 -0 -437 -377 -530 -520 -474 -416
-0 -0 -0 -0 -0 -0 -0 -0 -0 -0 -0 -0 -0 -0 -0 -0 -0 -0 -0 -0 -0 -0 -0 -0 -0 -231 -171 -269 -303 -428 -0 -0 -1 -0 -0 -0 -63 -499 -770 -654 -596 -0 -520 -406 -437 -450 -407 -399 -436
-0 -0 -0 -0 -0 -0 -0 -0 -0 -0 -0 -0 -0 -0 -0 -0 -0 -0 -0 -0 -0 -0 -0 -0 -0 -0 -400 -232 -226 -257 -333 -449 -473 -420 -402 -476 -549 -559 -551 -481 -411 -502 -388 -406 -416 -412 -339 -333 -354
-0 -0 -0 -0 -0 -0 -0 -0 -0 -0 -0 -0 -0 -0 -0 -0 -0 -0 -0 -0 -0 -0 -0 -0 -0 -0 -0 -250 -305 -255 -306 -315 -346 -335 -305 -339 -409 -446 -450 -429 -413 -421 -397 -317 -391 -391 -321 -194 -261
-0 -0 -0 -0 -0 -0 -0 -0 -0 -0 -0 -0 -0 -0 -0 -0 -0 -0 -0 -0 -0 -0 -0 -0 -0 -0 -0 -0 -116 -379 -248 -218 -182 -184 -188 -218 -340 -388 -440 -337 -373 -370 -400 -324 -356 -369 -317 -257 -138
-0 -0 -0 -0 -0 -0 -0 -0 -0 -0 -0 -0 -0 -0 -0 -0 -0 -0 -0 -0 -0 -0 -0 -0 -0 -0 -0 -0 -0 -0 -395 -248 -209 -180 -191 -231 -323 -349 -325 -338 -327 -374 -364 -355 -359 -367 -349 -274 -154
-0 -0 -0 -0 -0 -0 -0 -0 -0 -0 -0 -0 -0 -0 -0 -0 -0 -0 -0 -0 -0 -0 -0 -0 -0 -0 -0 -0 -0 -0 -0 -299 -325 -271 -235 -249 -310 -346 -333 -314 -332 -337 -314 -357 -348 -345 -315 -251 -178
-0 -0 -0 -0 -0 -0 -0 -0 -0 -0 -0 -0 -0 -0 -0 -0 -0 -0 -0 -0 -0 -0 -0 -0 -0 -0 -0 -0 -0 -0 -0 -0 -375 -370 -352 -319 -372 -374 -341 -326 -330 -326 -345 -322 -333 -348 -295 -219 -136
-0 -0 -0 -0 -0 -0 -0 -0 -0 -0 -0 -0 -0 -0 -0 -0 -0 -0 -0 -0 -0 -0 -0 -0 -0 -0 -0 -0 -0 -0 -0 -0 -465 -395 -361 -369 -393 -376 -308 -282 -314 -313 -332 -335 -356 -293 -218 -158 -99
-0 -0 -0 -0 -0 -0 -0 -0 -0 -0 -0 -0 -0 -0 -0 -0 -0 -0 -0 -0 -0 -0 -0 -0 -0 -0 -0 -0 -0 -0 -0 -0 -131 -309 -319 -287 -359 -290 -306 -317 -312 -298 -303 -292 -279 -167 -106 -80 -79
-0 -0 -0 -0 -0 -0 -0 -0 -0 -0 -0 -0 -0 -0 -0 -0 -0 -0 -0 -0 -0 -0 -0 -0 -0 -0 -0 -0 -0 -0 -0 -0 -0 -304 -294 -280 -291 -310 -337 -319 -291 -263 -249 -214 -149 -70 -28 -41 -75
-0 -0 -0 -0 -0 -0 -0 -0 -0 -0 -0 -0 -0 -0 -0 -0 -0 -0 -0 -0 -0 -0 -0 -0 -0 -0 -0 -0 -0 -0 -0 -0 -0 -0 -304 -323 -338 -328 -290 -261 -234 -206 -193 -123 -80 -60 -49 -60 -92
-0 -0 -0 -1 -2 -0 -1 -0 -0 -0 -0 -0 -0 -0 -0 -0 -0 -0 -0 -0 -166 -0 -0 -0 -0 -0 -0 -0 -0 -0 -0 -0 -0 -0 -0 -378 -302 -314 -259 -236 -193 -173 -114 -66 -60 -66 -70 -91 -81
Wind_Speed
22 19 18 20 21 22 26 23 20 16 18 16 20 22 22 25 14 14 16 13 15 24 27 27 28 29 29 30 30 31 31 32 32 31 31 30 30 29 29 28 27 26 25 24 24 23 23 23 23
21 17 18 21 25 28 25 24 23 19 21 24 22 18 23 28 30 35 28 3 17 27 27 28 28 28 28 30 31 31 31 31 31 31 31 30 30 29 28 27 26 25 24 23 23 22 22 22 22
18 17 21 25 27 30 24 23 24 17 23 19 19 22 20 21 25 26 25 6 14 26 28 25 27 27 28 29 31 31 30 30 29 29 29 28 27 27 26 25 24 24 23 22 21 21 21 21 21
17 19 19 29 31 26 29 25 22 25 22 20 21 21 22 17 30 29 25 6 16 24 27 24 25 24 26 28 30 30 29 29 29 28 27 26 26 25 25 23 22 22 21 20 19 19 19 19 19
19 21 31 32 31 26 28 28 27 28 26 22 21 23 22 25 29 25 15 7 19 23 25 25 25 25 25 27 27 28 27 27 27 26 26 25 24 24 22 21 21 20 19 18 18 17 17 17 17
25 25 35 36 35 27 27 26 25 24 23 24 22 25 18 25 24 20 14 8 15 23 20 24 24 23 23 22 26 25 25 25 25 25 24 23 22 21 20 20 19 19 18 17 16 15 15 15 15
30 32 42 41 33 33 32 26 26 24 25 21 24 24 21 24 22 17 12 12 12 16 17 23 23 22 20 20 20 22 21 22 23 23 22 22 21 19 18 18 17 16 16 15 15 14 13 13 12
29 31 39 38 39 37 29 31 29 29 29 26 22 21 24 24 20 16 12 11 12 14 15 17 19 20 19 17 16 17 16 17 19 19 20 19 17 16 16 16 15 14 13 12 12 12 11 11 11
25 38 43 40 36 36 27 31 32 28 32 27 23 24 25 23 20 16 13 15 13 15 13 13 15 16 14 15 16 15 14 13 14 15 14 14 14 13 12 13 12 12 11 10 9 9 8 9 8
30 41 42 33 32 34 30 32 36 35 35 35 31 26 26 26 21 20 17 19 18 17 19 14 14 13 12 10 10 14 15 12 12 12 10 10 9 10 9 9 9 9 8 7 7 6 6 6 7
31 44 36 34 32 31 37 37 37 38 40 33 33 32 31 26 24 22 21 23 24 24 20 22 16 16 15 12 10 9 8 8 8 9 7 7 5 5 6 6 7 7 6 5 5 4 3 4 5
29 31 35 37 34 33 35 35 47 41 44 38 39 36 31 29 26 24 24 25 23 23 28 26 27 21 19 19 14 11 10 8 6 6 4 2 0 2 3 3 4 4 4 3 4 4 2 4 4
26 29 30 32 34 35 34 41 44 45 40 40 36 37 37 36 32 27 24 24 23 25 24 26 30 26 26 26 22 20 12 17 11 9 8 7 4 3 3 4 2 3 3 3 5 6 5 6 7
19 25 31 32 33 33 36 44 36 34 35 39 40 40 37 36 33 30 25 25 25 25 26 30 30 36 30 30 29 27 21 16 23 21 19 19 11 11 8 6 2 4 4 4 6 8 9 10 10
21 27 30 30 30 32 31 45 41 31 34 38 33 32 31 30 30 29 27 26 26 28 30 30 26 35 34 30 30 31 31 25 21 24 24 24 23 19 17 17 13 12 9 6 8 10 12 12 13
21 21 27 20 23 24 25 39 22 24 28 33 36 32 33 32 30 30 30 28 25 26 29 27 25 31 41 40 36 25 30 25 22 19 22 18 22 21 14 14 9 9 8 9 10 12 14 14 14
21 26 24 23 20 24 25 31 24 26 27 31 35 34 34 34 33 30 29 29 28 26 26 27 27 30 31 40 37 36 36 25 21 20 21 15 17 13 13 13 23 10 14 12 14 14 15 17 17
25 25 24 27 25 30 35 36 35 34 31 31 34 36 35 35 35 34 32 31 30 28 26 26 28 32 33 39 33 36 38 29 28 25 21 18 22 22 22 15 16 10 16 12 13 14 17 18 19
23 24 25 26 25 33 38 43 42 39 38 36 34 32 36 39 36 37 36 34 32 30 28 27 24 22 24 27 31 35 31 31 31 29 24 22 20 16 16 13 11 26 17 16 13 17 20 20 20
21 26 28 29 27 33 39 44 44 42 37 34 30 32 36 36 36 39 38 37 36 35 34 31 29 29 27 26 24 25 25 30 30 28 26 24 20 20 19 17 18 17 15 15 15 15 20 21 19
22 25 26 30 30 33 34 38 26 30 25 25 30 32 34 36 35 34 36 39 39 39 37 38 34 32 32 30 28 27 28 29 27 29 28 27 24 21 17 16 18 17 15 16 15 16 19 23 19
24 20 24 28 32 34 29 38 32 23 27 23 25 28 33 36 34 36 36 36 38 39 40 40 40 38 34 33 34 33 32 35 30 26 26 30 26 23 18 21 20 19 17 16 16 18 21 19 20
22 20 25 28 32 31 30 33 27 23 26 22 31 29 30 29 29 31 32 34 36 36 38 40 42 42 39 36 36 36 36 34 35 32 34 31 28 25 27 25 20 18 17 18 17 20 21 17 16
20 24 28 25 26 32 26 29 31 24 24 28 30 28 28 26 28 30 32 34 36 37 37 38 40 43 43 40 38 39 39 37 34 33 33 33 34 32 27 22 20 17 17 18 19 20 20 16 13
21 26 30 28 27 31 24 35 33 27 30 35 37 32 27 27 30 33 37 38 38 38 39 39 39 44 43 42 43 40 40 39 38 37 34 31 31 28 25 22 22 19 18 18 20 21 20 14 11
22 24 27 32 32 34 31 35 29 26 32 33 34 33 32 33 34 37 38 39 38 38 39 41 42 43 41 42 43 41 41 40 39 36 35 34 29 29 27 23 20 18 17 18 20 21 17 12 10
20 24 22 29 32 35 31 34 37 29 32 32 36 31 31 35 38 39 40 39 38 40 42 42 44 45 44 42 41 41 39 36 37 35 32 31 32 33 27 22 19 19 17 19 18 18 13 11 10
22 15 23 22 31 34 33 40 38 36 36 35 32 31 32 37 39 41 40 38 38 40 42 43 44 47 47 45 43 42 39 37 33 31 31 28 27 27 24 20 20 19 18 17 15 12 11 12 10
19 22 20 23 24 32 39 35 26 35 34 34 34 33 35 38 39 41 40 38 39 39 40 42 44 45 46 46 44 44 42 37 34 31 28 25 23 20 18 18 19 19 17 14 12 10 12 11 9
21 22 21 25 26 25 32 43 33 32 27 32 40 41 40 39 40 41 42 41 39 40 41 42 42 43 44 45 45 45 43 39 35 31 27 24 22 19 17 17 18 17 15 12 10 12 11 9 8
Wind_Direction
308 301 287 275 270 268 262 263 272 279 281 282 281 279 278 275 292 302 298 121 132 137 139 138 135 133 128 124 121 119 117 117 118 115 114 112 111 109 107 106 102 98 93 88 82 76 69 65 62
303 304 287 276 266 258 261 262 265 274 282 280 282 286 282 272 248 243 269 71 139 143 140 140 138 135 129 128 125 123 120 119 119 118 117 116 115 114 111 108 104 99 95 91 86 79 73 69 66
303 301 277 267 263 257 262 264 267 274 288 280 286 288 281 282 282 270 279 168 148 146 144 139 139 138 135 131 129 126 124 122 121 120 118 116 112 113 112 107 105 102 99 93 87 80 77 71 67
295 286 284 263 261 263 254 262 268 273 289 283 288 281 287 291 288 269 279 193 154 148 147 141 141 139 139 137 134 130 127 125 125 122 121 118 115 116 116 109 106 103 102 95 89 81 78 74 68
286 279 265 264 263 268 256 261 266 272 279 279 287 284 282 291 291 278 276 195 159 152 148 145 145 143 142 141 137 134 130 127 126 125 124 121 119 119 114 110 109 107 103 100 93 87 80 74 70
270 270 261 262 262 268 263 263 269 273 275 276 284 289 282 297 300 289 274 217 168 153 151 147 148 146 145 143 142 138 135 132 130 129 127 126 124 121 117 116 117 114 109 106 97 90 83 78 70
264 264 259 260 264 263 262 262 266 274 274 273 285 281 286 301 301 293 271 238 185 165 159 150 152 151 149 148 147 143 139 136 133 132 130 131 129 121 121 121 123 119 114 112 101 94 88 82 75
266 266 261 262 259 262 266 257 264 269 269 281 285 276 288 298 300 295 268 230 209 210 170 161 155 154 155 156 155 150 144 139 137 135 134 132 127 122 122 125 124 122 121 118 104 100 92 81 73
268 260 258 259 260 261 269 262 262 272 270 274 279 278 289 297 295 296 270 233 224 222 190 178 171 164 166 163 160 158 153 146 139 138 133 127 125 124 119 128 122 123 121 121 108 98 94 80 71
260 258 259 266 267 263 270 261 262 265 265 267 272 277 285 288 287 283 273 238 234 224 229 211 200 191 198 197 182 167 162 156 150 145 137 134 123 118 115 113 117 116 114 112 108 95 87 73 56
265 258 264 264 269 273 266 262 262 261 261 263 269 278 283 286 285 279 275 256 245 239 235 233 220 222 224 216 213 208 205 173 163 156 147 141 114 99 112 96 101 115 114 100 98 86 91 70 44
269 268 264 263 270 273 269 271 255 260 259 265 270 274 275 279 284 280 276 264 256 244 241 240 237 234 235 241 234 229 211 209 204 187 184 185 322 43 59 63 79 71 67 67 55 41 54 24 16
273 271 270 269 272 272 275 265 257 261 263 265 267 268 269 270 275 279 280 271 262 254 244 242 241 238 241 244 247 247 229 249 244 247 253 269 287 316 341 343 19 29 30 25 10 3 3 1 355
288 281 273 273 272 274 272 258 268 262 265 265 266 267 267 267 270 274 279 278 268 260 257 247 243 242 244 245 249 251 253 253 258 263 268 272 288 299 309 317 302 334 347 353 351 351 348 346 346
291 283 279 277 277 275 278 258 259 274 268 263 265 268 269 271 271 271 276 280 274 266 258 250 249 246 247 248 252 253 255 258 262 266 268 272 279 290 299 305 315 323 334 337 341 341 341 339 339
290 291 274 284 284 279 274 259 282 285 277 265 264 265 269 270 272 272 272 271 279 277 264 261 252 250 247 250 250 247 255 260 263 267 273 276 280 285 294 302 302 325 332 328 329 333 336 335 335
288 276 282 281 291 285 280 272 275 286 289 277 266 267 268 270 269 273 276 277 279 282 277 270 254 252 262 253 253 255 254 259 256 263 269 269 282 280 287 293 295 309 325 324 325 328 331 333 331
279 280 283 280 286 282 274 273 275 277 281 281 277 270 269 269 270 273 274 276 275 278 281 278 268 258 261 260 259 255 259 259 260 262 257 257 278 284 289 287 297 295 317 319 324 322 327 328 328
284 282 283 288 292 285 277 274 274 276 276 277 276 277 273 269 272 272 272 275 277 277 280 279 274 268 262 259 261 260 260 257 261 263 261 259 266 260 281 285 299 300 317 316 321 322 321 324 327
289 284 282 287 289 289 282 276 277 275 277 278 278 275 277 277 275 269 270 273 275 276 276 278 277 275 271 266 263 263 266 261 260 260 261 266 267 273 281 268 288 289 288 306 316 316 322 323 324
291 289 289 287 291 291 289 283 287 293 291 287 282 281 280 277 276 277 274 272 274 273 276 275 276 276 274 270 266 266 270 272 266 258 261 264 265 275 268 272 281 286 287 302 309 311 315 321 324
290 297 296 294 291 284 298 277 284 294 297 296 297 290 283 283 280 278 278 280 278 277 276 275 274 273 275 273 267 264 264 266 265 263 256 270 268 266 265 283 280 285 285 295 306 310 314 318 318
299 305 299 297 291 289 290 283 285 290 291 294 302 301 294 288 287 284 284 283 282 283 280 278 273 272 272 273 270 268 264 264 267 269 268 271 271 265 276 280 277 278 280 293 303 308 312 314 314
306 302 301 302 296 284 291 286 283 296 297 300 302 302 300 299 293 291 289 289 285 284 283 282 278 273 273 274 273 269 266 264 264 266 268 271 274 274 274 272 273 270 283 289 301 306 311 310 306
303 300 292 289 288 286 297 288 286 298 303 300 296 296 300 303 298 296 293 290 289 286 283 282 280 275 275 273 272 272 270 266 264 264 267 269 271 273 273 272 269 272 282 291 301 306 310 307 300
297 299 290 286 286 289 295 285 296 313 311 309 305 295 295 297 300 299 298 292 289 289 286 283 280 276 275 274 273 273 272 270 264 264 264 267 267 273 276 274 270 272 281 292 301 306 309 306 298
298 294 305 294 295 291 292 294 300 309 317 310 306 303 301 301 301 301 301 294 290 290 288 285 280 276 274 273 274 272 273 273 266 264 265 267 270 274 275 270 267 273 281 294 300 304 303 304 300
291 305 300 301 294 292 297 294 294 310 314 314 313 308 305 305 305 303 302 298 292 292 291 288 282 276 273 272 271 270 272 271 270 264 264 268 271 274 269 264 265 271 285 291 295 301 305 303 304
292 293 299 302 299 298 297 303 321 316 321 319 317 313 310 306 305 305 303 302 296 294 293 292 285 278 271 269 269 268 267 269 269 263 262 266 271 272 265 259 262 274 282 284 287 295 303 298 302
296 293 295 292 300 301 304 298 315 317 327 325 318 316 309 305 305 304 301 297 297 294 293 292 288 280 272 268 266 264 264 264 265 260 259 263 265 269 263 263 265 274 275 275 278 293 294 291 293